Probability
0 0 0 1 1 0 0 0 0 0 0 0 0 0 0 0 0 0 0 0 0 0 0 0 0 0 0 0 0 0 0 0 0 0 0 0 0 0 0 0 0 0 0
0 0 1 2 2 1 0 0 0 0 0 0 0 0 0 0 0 0 0 0 0 0 0 0 0 0 0 0 0 0 0 0 0 0 0 0 0 0 0 0 0 0 0
0 0 1 2 3 1 1 0 0 0 0 0 0 0 0 0 0 0 0 0 0 0 0 0 0 0 0 0 0 0 0 0 0 0 0 0 0 0 0 0 0 0 0
0 0 1 2 2 2 2 1 0 0 0 0 0 0 0 0 0 0 0 0 0 0 0 0 0 0 0 0 0 0 0 0 0 0 0 0 0 0 0 0 0 0 0
0 0 0 1 1 2 2 1 0 0 0 0 0 0 0 0 0 0 0 0 0 0 0 0 0 0 0 0 0 0 0 0 0 0 0 0 0 0 0 0 0 0 0
0 0 0 0 0 1 1 0 0 0 0 0 0 0 0 0 0 0 0 0 0 0 0 0 0 0 0 0 0 0 0 0 0 0 0 0 0 0 0 0 0 0 0
0 0 0 0 0 0 0 0 0 0 0 0 0 0 0 0 0 0 0 0 0 0 0 0 0 0 0 0 0 0 0 0 0 0 0 0 0 0 0 0 0 0 0
0 0 0 0 0 0 0 0 0 0 0 0 0 0 0 0 0 0 0 0 0 0 0 0 0 0 0 0 0 0 0 0 0 0 0 0 0 0 0 0 0 0 0
0 0 0 0 0 0 0 0 0 0 0 0 0 0 0 0 0 0 0 0 0 0 0 0 0 0 0 0 0 0 0 0 0 0 0 0 0 0 1 1 1 1 0
0 0 0 0 0 0 0 0 0 0 0 0 0 0 0 0 0 0 0 0 0 0 0 1 1 0 0 0 0 0 0 0 0 0 0 0 0 0 1 2 2 1 1
0 0 0 0 0 0 0 0 0 0 0 0 0 0 0 0 0 0 0 0 0 0 0 1 1 0 0 0 0 0 0 0 0 0 0 0 0 0 1 1 1 1 0
0 0 0 0 0 0 0 0 0 0 0 0 0 0 0 0 0 0 0 0 0 0 0 1 1 0 0 1 0 0 0 0 0 0 0 0 0 0 0 0 0 0 0
0 0 0 0 0 0 0 0 0 0 0 0 0 0 0 0 1 0 0 0 0 0 0 0 0 0 0 0 0 0 0 0 0 0 0 0 0 1 0 0 0 0 0
0 0 0 0 0 0 0 0 0 0 0 0 0 0 0 0 0 0 0 0 0 0 0 0 0 0 0 0 0 0 0 0 0 0 0 0 0 0 0 0 0 0 0
0 0 0 0 0 0 0 0 0 0 0 0 0 0 0 0 0 0 0 0 0 0 0 0 0 0 0 0 0 0 0 0 0 0 0 0 0 0 0 0 0 0 0
0 0 0 0 0 0 0 0 0 0 0 0 0 0 0 0 0 0 0 0 0 0 0 0 0 0 0 0 0 0 0 0 0 0 0 0 0 0 0 0 0 0 0
0 0 0 0 0 0 0 0 0 0 0 0 0 0 0 0 0 0 0 0 0 0 0 0 0 0 0 0 0 0 0 0 0 0 0 0 0 0 0 0 0 0 0
0 0 0 0 0 0 0 0 0 0 0 0 0 0 0 0 0 0 0 0 0 0 0 0 0 0 0 0 0 0 0 1 1 0 0 0 0 0 0 0 0 0 0
0 0 0 0 0 0 0 0 0 0 0 0 0 0 0 0 0 0 0 0 0 0 0 0 0 0 0 0 0 0 0 1 2 1 1 1 0 0 0 0 0 0 0
0 0 0 0 0 1 2 1 1 0 0 0 0 0 0 0 0 0 0 0 0 0 0 0 0 0 0 0 0 0 0 1 2 2 2 1 0 0 0 0 0 0 0
0 0 0 0 1 3 4 3 1 0 0 0 0 0 0 0 0 0 0 0 0 0 0 0 0 0 0 0 0 0 0 0 1 1 1 1 0 0 0 0 0 0 0
0 0 0 0 1 3 4 3 2 1 0 0 0 0 0 0 0 0 0 0 0 0 0 0 0 0 0 0 0 0 0 0 0 0 0 0 0 0 0 0 0 0 0
0 0 0 0 1 3 4 3 3 2 1 0 0 0 0 0 0 0 0 0 0 0 0 0 0 0 0 0 0 0 0 0 0 0 0 0 0 0 0 0 0 0 0
0 0 0 0 1 2 3 3 3 2 1 0 0 0 0 0 0 0 0 0 0 0 0 0 0 0 0 0 0 0 0 0 0 0 0 0 0 0 0 0 0 0 0
0 0 1 1 1 3 4 3 3 2 1 0 0 0 0 0 0 0 0 0 0 0 0 0 0 0 0 0 0 0 0 0 0 0 0 0 0 0 0 0 0 0 0
0 1 2 2 1 3 4 4 3 1 0 0 0 0 0 0 0 0 0 0 0 0 0 0 0 0 0 0 0 0 0 0 0 0 0 0 0 0 0 0 0 0 0
Wind_Speed
3 4 6 4 5 5 6 6 6 6 6 7 7 7 7 7 6 6 6 6 6 7 7 7 7 7 7 7 7 7 7 7 6 6 5 5 5 5 5 4 1 4 6
3 4 6 3 4 5 6 6 7 7 7 7 7 7 7 6 6 6 6 6 7 7 7 7 7 7 7 8 8 8 8 8 7 6 4 5 6 6 5 4 4 5 5
3 4 5 4 4 5 6 6 7 7 7 7 7 7 7 6 6 7 6 7 7 7 7 7 7 7 8 8 8 8 8 8 7 4 1 3 6 6 5 5 5 5 5
4 4 5 5 4 5 6 6 6 7 7 7 7 7 7 7 7 6 7 7 7 7 7 7 7 8 8 8 8 8 8 7 6 1 2 5 5 8 5 5 5 5 5
4 4 6 4 4 5 5 6 6 6 7 7 7 7 7 7 7 7 7 7 7 7 7 7 8 7 7 8 8 8 7 6 3 2 6 5 6 8 7 6 6 5 5
4 4 6 4 4 4 4 5 5 5 6 6 6 6 6 6 7 7 7 7 7 7 7 8 8 8 8 8 8 7 7 4 2 5 5 5 6 8 7 7 6 6 6
4 4 5 4 3 4 4 4 5 5 5 5 5 5 5 6 6 7 7 7 7 7 7 7 8 8 8 8 8 7 6 3 4 5 5 6 7 8 8 8 7 6 7
4 3 5 5 3 3 4 4 4 4 5 5 5 5 5 5 6 6 6 7 7 7 7 8 8 8 9 9 8 8 7 4 5 5 6 7 10 8 8 8 8 7 8
3 3 3 3 3 3 3 3 3 4 4 5 5 5 5 6 6 7 7 7 7 8 8 9 9 9 9 9 9 9 7 5 5 5 6 6 9 9 9 9 9 9 8
3 3 2 2 2 2 3 4 3 3 4 4 5 5 5 5 7 6 7 8 8 9 9 9 9 10 10 9 9 8 4 1 5 6 5 7 10 9 9 9 9 10 9
3 3 2 2 1 1 2 4 3 3 3 2 4 4 2 3 5 5 9 9 9 9 10 10 10 9 8 10 9 5 1 3 6 5 6 9 9 9 10 10 10 10 10
3 3 3 2 2 2 2 2 1 2 2 1 2 3 2 4 4 5 9 9 9 9 10 9 8 6 3 5 6 2 3 5 5 5 7 9 8 9 10 10 10 10 11
3 3 3 3 3 3 2 1 1 1 1 2 2 3 3 3 3 3 4 5 5 5 5 6 4 4 5 5 4 5 5 4 4 5 8 10 9 9 10 10 11 11 11
3 3 3 3 3 3 2 2 1 1 1 2 2 3 2 2 3 3 3 3 3 3 3 3 3 6 6 6 6 6 6 4 4 4 8 12 10 10 10 10 11 11 11
3 3 3 3 3 3 2 1 1 2 2 2 2 2 2 2 3 3 3 3 3 3 3 3 4 6 6 6 6 7 7 7 6 6 6 12 12 12 11 10 11 11 12
2 2 3 2 2 2 2 2 2 2 2 2 2 2 2 2 2 3 3 3 3 3 3 3 5 5 4 5 6 6 6 6 7 6 6 8 12 13 13 12 12 12 12
2 2 3 1 1 1 2 3 2 2 2 2 2 2 2 3 3 3 3 3 3 4 4 4 5 4 4 5 6 6 6 6 6 6 6 5 7 11 13 12 12 12 12
2 2 3 2 1 2 2 2 2 2 2 2 2 1 2 2 3 3 3 3 3 3 3 3 3 4 4 4 4 4 4 5 6 6 5 5 5 6 10 13 13 12 12
2 2 2 2 2 2 2 2 2 2 3 2 2 1 1 2 3 3 3 3 3 3 3 3 3 3 4 4 4 4 4 4 4 4 5 6 6 5 6 9 11 12 12
2 2 2 2 2 2 2 2 2 2 2 2 2 2 2 2 3 3 3 3 3 3 2 3 4 3 3 3 4 4 4 4 3 4 4 5 5 6 6 6 5 8 12
2 2 2 2 2 2 1 1 2 2 2 2 2 3 2 2 2 3 2 3 3 3 3 4 4 4 3 3 3 3 4 4 4 3 3 3 5 5 5 5 4 4 5
3 2 2 2 2 2 1 1 1 2 2 2 1 2 2 2 2 2 3 3 3 3 4 4 4 2 3 2 1 2 2 3 3 3 3 2 3 4 4 5 5 5 5
3 3 2 3 3 2 2 1 2 2 1 2 1 1 2 2 1 2 2 3 3 2 3 4 4 4 3 2 1 1 1 1 3 3 3 2 3 3 3 4 5 5 5
3 3 3 3 2 2 2 2 2 1 1 1 1 1 2 1 1 1 2 2 3 2 3 4 4 3 3 2 2 1 1 1 1 2 2 2 3 3 3 3 3 4 5
3 3 2 3 2 2 2 2 2 1 1 1 1 2 2 2 1 1 1 2 3 2 3 3 3 3 3 3 2 2 1 1 1 1 2 2 2 2 2 2 2 3 4
3 3 3 3 3 2 2 2 2 2 2 2 2 2 2 2 1 1 1 2 2 3 3 3 3 3 3 3 3 2 2 2 2 2 2 2 2 2 2 2 2 2 3
Wind_Direction
76 80 81 57 64 65 66 70 77 84 88 92 92 91 89 87 88 88 85 85 88 85 83 83 83 82 78 77 82 81 79 81 84 87 87 88 86 87 86 77 83 108 89
84 90 94 71 71 70 71 72 74 80 83 84 84 84 86 85 87 89 89 89 89 84 83 81 79 80 76 74 78 79 76 74 76 79 92 106 90 81 82 74 38 66 87
96 101 112 88 76 73 75 73 75 76 80 82 80 81 82 83 85 86 87 88 86 86 82 79 77 79 76 76 77 76 74 73 73 73 165 105 100 85 83 82 78 79 84
90 95 89 89 82 78 79 77 73 74 76 77 79 81 82 85 86 86 88 87 87 86 83 79 77 80 80 79 78 76 74 71 65 10 65 63 76 81 78 75 80 83 86
89 89 89 88 86 84 81 78 75 73 74 71 72 76 78 81 85 84 86 87 88 86 83 81 80 80 81 81 78 77 76 75 70 43 59 58 65 75 75 72 72 75 85
96 92 89 86 87 86 83 78 75 74 75 72 70 72 73 76 79 82 83 85 86 86 84 81 79 78 79 81 80 78 74 68 97 64 59 59 65 72 71 73 72 68 72
87 87 96 86 83 85 82 75 70 69 70 70 71 75 75 74 79 80 80 82 86 86 84 81 78 79 78 80 79 77 69 45 57 69 64 60 61 67 70 70 67 68 72
83 85 99 102 78 75 75 68 67 68 67 66 67 71 74 76 78 79 79 80 85 86 85 81 80 81 80 80 79 75 60 9 73 70 67 63 62 66 68 66 65 71 73
85 90 95 105 122 128 104 73 66 68 66 71 68 73 79 81 83 83 83 83 85 89 88 85 83 80 80 80 78 74 66 21 50 64 70 65 66 65 65 64 64 68 67
88 81 82 81 76 99 118 107 82 75 73 78 77 75 86 106 103 96 94 87 87 89 89 87 85 82 80 79 77 73 63 48 55 64 62 70 66 64 64 65 67 66 64
88 81 79 76 80 71 74 104 125 127 111 127 116 113 150 105 96 101 81 88 89 89 88 87 86 87 93 91 79 72 59 66 68 58 57 65 69 67 65 68 70 68 68
80 68 63 67 79 81 76 96 104 103 106 97 87 96 83 79 80 87 95 93 94 97 97 91 98 115 118 98 101 120 68 65 66 63 62 60 67 69 69 69 71 71 69
72 75 65 56 63 72 93 76 68 73 86 93 86 98 96 94 102 100 106 115 110 115 104 110 122 86 84 75 66 69 59 52 58 58 59 58 63 68 72 74 74 73 71
83 75 67 50 55 58 73 80 81 87 89 88 90 87 96 92 90 94 96 92 92 88 88 90 84 86 82 84 76 71 69 61 59 65 63 55 58 64 71 76 76 76 73
91 86 77 54 49 56 68 66 84 75 76 93 82 79 98 101 100 106 102 98 92 92 98 92 88 84 77 72 67 65 65 63 64 67 73 61 56 61 67 72 74 75 72
109 97 95 78 67 66 90 84 81 78 88 81 90 89 106 110 116 115 105 102 96 92 87 96 91 85 80 72 70 68 62 65 67 66 72 77 63 57 59 64 70 71 70
115 107 97 86 88 68 74 79 82 91 79 84 90 94 104 113 130 120 109 110 110 109 107 99 94 89 87 84 74 65 62 57 63 67 65 65 78 71 61 61 65 67 70
126 112 103 102 91 84 82 93 89 90 83 76 78 89 101 123 127 118 118 116 117 113 108 107 105 101 97 88 77 68 66 62 58 59 66 68 63 72 74 65 64 66 66
133 123 120 103 98 96 95 101 91 96 90 82 77 67 91 109 120 124 120 121 123 120 117 121 113 110 104 96 90 78 66 62 58 59 64 67 71 72 78 81 72 64 61
139 136 119 106 98 104 114 112 107 98 89 79 74 74 83 105 114 113 129 136 136 133 128 125 120 116 108 108 97 84 73 71 66 58 58 64 65 68 67 72 81 78 67
147 148 126 127 118 114 122 123 108 102 97 83 69 72 88 109 117 120 132 140 151 152 153 145 139 136 133 131 123 111 98 80 71 66 60 64 73 67 69 66 61 61 82
151 158 146 131 125 120 108 107 109 114 106 90 84 95 104 113 122 137 159 154 158 159 163 161 160 156 147 178 190 160 144 124 93 70 68 65 72 76 67 67 67 62 55
159 164 158 143 139 136 130 107 102 112 118 117 100 91 101 111 124 157 171 167 171 178 176 183 184 181 174 177 255 276 216 125 117 103 76 78 75 72 75 68 70 68 64
163 163 165 153 151 137 134 134 140 141 130 116 123 119 117 112 129 152 162 172 179 191 192 197 197 199 192 178 165 285 315 90 180 142 130 101 89 77 72 79 74 70 65
156 160 169 156 156 146 150 150 179 157 146 141 148 138 131 115 112 134 146 183 192 195 210 212 203 213 209 208 196 176 160 179 242 181 146 141 126 94 80 84 92 78 73
152 156 167 169 167 162 178 184 200 178 166 163 167 160 157 138 137 140 173 202 206 203 212 220 219 220 224 221 222 207 198 198 197 191 181 161 134 106 108 96 100 95 82